[[{"header":{"parameterUnit":"m.s-1","parameterCategory":1,"la1":30.2991,"la2":30.254,"lo1":-89.0895,"lo2":-89.0444,"dy":0.0017,"dx":0.0017,"nx":28,"ny":28,"refTime":"2023-04-02T21:00:00:Z","depth":0,"parameterNumber":2,"parameterNumberName":"U-component_of_WINDS"},"data":[0,0,0,0,0,0,0,0,0,0,0,0,0,0,0,0,0,0,0,0,0,0,0,0,0,0,0,0,0,0,0,0,0,0,0,0,0,0,0,0,0,0,0,0,0,0,0,0,0,0,0,0,0,0,0,0,0,0,-3.4718,-3.4719,0,-3.4742,-3.4742,-3.4743,-3.4682,-3.468,-3.4678,-3.4676,-3.4701,-3.4703,-3.4706,0,0,0,0,0,0,0,0,0,0,0,0,0,-3.4625,-3.4627,-3.4718,-3.4719,-3.4719,-3.4742,-3.4742,-3.4743,-3.4682,-3.468,-3.4677,-3.4675,-3.47,-3.4703,-3.4706,0,0,0,0,0,0,0,0,0,0,0,0,0,-3.4659,-3.4628,-3.4718,-3.4691,-3.4689,-3.4742,-3.4742,-3.4743,-3.4682,-3.4679,-3.4677,-3.4674,-3.4699,-3.4703,-3.4706,-3.4786,0,0,-3.4717,-3.4719,0,0,0,0,0,0,0,0,-3.4657,-3.4662,-3.4695,-3.4693,-3.4691,-3.4706,-3.4718,-3.4757,-3.4683,-3.4685,-3.4676,-3.4673,-3.4705,-3.4708,-3.4719,-3.4787,-3.4788,-3.4718,-3.472,-3.4722,-3.4723,0,0,0,0,0,0,0,-3.4655,-3.4661,-3.4728,-3.4696,-3.4693,-3.468,-3.4681,-3.4726,-3.4711,-3.4685,-3.468,-3.4684,-3.4703,-3.4715,-3.4719,-3.4789,-3.4718,-3.4721,-3.4723,-3.4725,-3.4928,-3.4931,0,0,0,0,0,0,-3.4655,-3.4659,-3.4727,-3.4728,-3.4667,-3.4684,-3.4685,-3.4704,-3.471,-3.4708,-3.4686,-3.4681,-3.471,-3.4715,-3.4719,-3.4814,-3.4721,-3.4725,-3.4727,-3.4925,-3.4929,-3.4932,0,0,0,0,0,0,-3.4654,-3.4662,-3.4726,-3.4693,-3.47,-3.4688,-3.471,-3.4706,-3.4718,-3.4711,-3.4709,-3.4701,-3.4708,-3.4714,-3.4771,-3.4814,-3.4727,-3.473,-3.4921,-3.4926,-3.4931,-3.5004,0,0,0,0,0,0,-3.4651,-3.4662,-3.469,-3.4694,-3.4702,-3.4776,-3.4712,-3.4709,-3.4724,-3.4717,-3.4724,-3.4723,-3.4706,-3.4766,-3.4774,-3.4818,-3.4733,-3.4917,-3.4923,-3.4929,-3.4998,-3.5011,-3.5022,0,0,0,0,0,-3.4648,-3.471,-3.4692,-3.4701,-3.4738,-3.4778,-3.4783,-3.4763,-3.4728,-3.4758,-3.4755,-3.4722,-3.4809,-3.4772,-3.4781,-3.4826,-3.4914,-3.4922,-3.4929,-3.4992,-3.5008,-3.5022,0,0,0,0,0,0,-3.471,-3.4709,-3.469,-3.4754,-3.4767,-3.4768,-3.4804,-3.478,-3.4802,-3.4795,-3.477,-3.4772,-3.4834,-3.4836,-3.4795,-3.4906,-3.4856,-3.4865,-3.4901,-3.4916,-3.4928,-3.4925,-3.4736,0,0,0,0,0,-3.4732,-3.4764,-3.4762,-3.4819,-3.4827,-3.4815,-3.4832,-3.4816,-3.4828,-3.4833,-3.4833,-3.4847,-3.4878,-3.4898,-3.4925,-3.5,-3.5001,-3.5036,-3.5048,-3.5058,-3.5066,-3.5107,-3.5123,-3.4956,-3.4956,-3.4956,0,0,-3.4776,-3.478,-3.4801,-3.4832,-3.484,-3.4875,-3.482,-3.4858,-3.4885,-3.4839,-3.4891,-3.4894,-3.4908,-3.4974,-3.5003,-3.4978,-3.5113,-3.5068,-3.5076,-3.5077,-3.5116,-3.5132,-3.5146,-3.4961,-3.496,-3.4959,0,0,-3.4874,-3.488,-3.4929,-3.4939,-3.4952,-3.4945,-3.4957,-3.4963,-3.4963,-3.5016,-3.4983,-3.5016,-3.5068,-3.508,-3.5093,-3.5202,-3.5174,-3.5213,-3.5275,-3.5316,-3.5329,-3.534,-3.5379,-3.5393,-3.5221,-3.5221,-3.5221,0,-3.4926,-3.4977,-3.4957,-3.4999,-3.5014,-3.4977,-3.5028,-3.5039,-3.5061,-3.5073,-3.5045,-3.5113,-3.5119,-3.5189,-3.5216,-3.5228,-3.5242,-3.5209,-3.5329,-3.534,-3.535,-3.5387,-3.5402,-3.5225,-3.5225,-3.5224,-3.5224,0,-3.5041,-3.5078,-3.5116,-3.5139,-3.516,-3.5206,-3.5195,-3.5218,-3.5203,-3.5199,-3.5256,-3.5264,-3.5294,-3.531,-3.5294,-3.5379,-3.5363,-3.5333,-3.5281,-3.5371,-3.5405,-3.5419,-3.5232,-3.523,-3.5229,-3.5228,0,0,-3.5173,-3.5188,-3.5202,-3.5214,-3.5229,-3.5257,-3.5304,-3.5333,-3.5354,-3.5373,-3.5412,-3.546,-3.5434,-3.5449,-3.5435,-3.5472,-3.5559,-3.5437,-3.5437,-3.5458,-3.5653,-3.5674,-3.569,-3.5542,-3.5545,-3.5547,-3.5652,0,-3.5268,-3.5346,-3.5333,-3.541,-3.5444,-3.5413,-3.5454,-3.5468,-3.5468,-3.5499,-3.5499,-3.5533,-3.5496,-3.5505,-3.554,-3.5541,-3.5597,-3.5533,-3.5578,-3.558,-3.5572,-3.5708,-3.5729,-3.5827,-3.5665,-3.5667,-3.5669,0,-3.5388,-3.5413,-3.5493,-3.5506,-3.552,-3.5557,-3.5585,-3.5614,-3.5632,-3.563,-3.565,-3.5631,-3.568,-3.5631,-3.5699,-3.5656,-3.5675,-3.5679,-3.5682,-3.5683,-3.5627,-3.5711,-3.5858,-3.5872,-3.569,-3.5688,-3.5687,0,-3.5475,-3.5528,-3.5584,-3.5595,-3.5611,-3.5638,-3.5647,-3.5662,-3.5682,-3.5708,-3.5721,-3.5753,-3.5769,-3.5795,-3.5786,-3.5752,-3.5856,-3.5806,-3.5856,-3.5856,-3.5875,-3.5874,-3.6026,-3.5892,-3.5892,-3.5892,-3.5892,0,-3.5581,-3.5631,-3.5623,-3.5657,-3.5714,-3.57,-3.5757,-3.5762,-3.5777,-3.5812,-3.5789,-3.5823,-3.581,-3.5845,-3.5839,-3.5897,-3.5905,-3.5905,-3.5902,-3.5905,-3.5905,-3.5914,-3.5906,-3.5896,-3.5895,-3.5894,-3.5893,0,-3.5685,-3.5682,-3.574,-3.5753,-3.5758,-3.5799,-3.581,-3.5843,-3.5844,-3.589,-3.59,-3.59,-3.594,-3.5935,-3.598,-3.5976,-3.6047,-3.6038,-3.6041,-3.6038,-3.6087,-3.6082,-3.6248,-3.6269,-3.6124,-3.6125,-3.6127,0,-3.5751,-3.5789,-3.5808,-3.583,-3.5841,-3.5877,-3.5898,-3.5889,-3.5912,-3.5938,-3.5969,-3.6007,-3.6036,-3.6102,-3.6107,-3.6142,-3.6131,-3.6188,-3.6136,-3.6139,-3.6131,-3.6128,-3.6132,-3.6196,-3.6198,-3.6199,-3.62,0,-3.5869,-3.5867,-3.5898,-3.593,-3.5957,-3.5981,-3.6004,-3.6024,-3.6017,-3.6045,-3.6086,-3.6109,-3.6156,-3.6195,-3.6229,-3.6239,-3.6219,-3.6218,-3.623,-3.6232,-3.6232,-3.6232,-3.6066,-3.6212,-3.6211,-3.621,-3.621,-3.6209,-3.5955,-3.5989,-3.6008,-3.6044,-3.6061,-3.6084,-3.6116,-3.6122,-3.6156,-3.6193,-3.6187,-3.6233,-3.6255,-3.6298,-3.6313,-3.635,-3.633,-3.6349,-3.6353,-3.6357,-3.6363,-3.6229,-3.6357,-3.6356,-3.6356,-3.6356,-3.6356,0,-3.6071,-3.6083,-3.6117,-3.615,-3.618,-3.6161,-3.6187,-3.6213,-3.6254,-3.6276,-3.6307,-3.6356,-3.6394,-3.6405,-3.6443,-3.6471,-3.6463,-3.6481,-3.6477,-3.648,-3.6379,-3.6363,-3.6487,-3.6487,-3.6487,-3.6487,-3.6487,-3.6487,-3.6134,-3.619,-3.6191,-3.6257,-3.6269,-3.6314,-3.633,-3.6352,-3.637,-3.6425,-3.6458,-3.6465,-3.6484,-3.6523,-3.6559,-3.6561,-3.6576,-3.6597,-3.6596,-3.65,-3.6487,-3.6474,-3.6459,-3.6601,-3.6601,-3.6694,-3.6694,-3.6695]},{"header":{"parameterUnit":"m.s-1","parameterCategory":1,"la1":30.2991,"la2":30.254,"lo1":-89.0895,"lo2":-89.0444,"dy":0.0017,"dx":0.0017,"nx":28,"ny":28,"refTime":"2023-04-02T21:00:00:Z","depth":0,"parameterNumber":3,"parameterNumberName":"V-component_of_WINDS"},"data":[0,0,0,0,0,0,0,0,0,0,0,0,0,0,0,0,0,0,0,0,0,0,0,0,0,0,0,0,0,0,0,0,0,0,0,0,0,0,0,0,0,0,0,0,0,0,0,0,0,0,0,0,0,0,0,0,0,0,3.7512,3.7513,0,3.7579,3.758,3.7581,3.7653,3.7654,3.7655,3.7656,3.7719,3.772,3.7721,0,0,0,0,0,0,0,0,0,0,0,0,0,3.7443,3.7444,3.7512,3.7513,3.7514,3.7579,3.758,3.7581,3.7652,3.7654,3.7655,3.7656,3.7719,3.772,3.7721,0,0,0,0,0,0,0,0,0,0,0,0,0,3.7488,3.7444,3.7512,3.7557,3.7562,3.7579,3.758,3.7581,3.7652,3.7654,3.7655,3.7657,3.7719,3.772,3.7721,3.7697,0,0,3.7724,3.7725,0,0,0,0,0,0,0,0,3.7485,3.749,3.755,3.7554,3.756,3.7609,3.7579,3.762,3.7652,3.7618,3.7656,3.7657,3.7681,3.7685,3.7695,3.77,3.7703,3.7725,3.7725,3.7726,3.7726,0,0,0,0,0,0,0,3.7482,3.7488,3.7539,3.7551,3.7557,3.7574,3.7582,3.7587,3.764,3.7621,3.7626,3.7634,3.7684,3.7693,3.7697,3.7704,3.7724,3.7725,3.7726,3.7727,3.7694,3.7693,0,0,0,0,0,0,3.7472,3.7485,3.7536,3.7541,3.7526,3.7574,3.7583,3.7592,3.764,3.7649,3.7632,3.7637,3.7691,3.7695,3.7699,3.7675,3.7726,3.7727,3.7727,3.7696,3.7694,3.7693,0,0,0,0,0,0,3.7471,3.7476,3.7534,3.7514,3.7523,3.7573,3.7583,3.7592,3.7602,3.7649,3.7658,3.7632,3.7692,3.7697,3.7698,3.7678,3.7727,3.7728,3.7698,3.7695,3.7693,3.7626,0,0,0,0,0,0,3.7468,3.7475,3.7467,3.7514,3.7524,3.7532,3.7582,3.7592,3.7604,3.761,3.7651,3.7659,3.7694,3.7696,3.7699,3.7681,3.7729,3.77,3.7697,3.7694,3.763,3.7622,3.7615,0,0,0,0,0,3.7466,3.7444,3.7466,3.7472,3.7515,3.7531,3.7536,3.7578,3.7602,3.7594,3.7625,3.7658,3.768,3.7695,3.7699,3.7681,3.7701,3.7698,3.7694,3.7634,3.7623,3.7615,0,0,0,0,0,0,3.7391,3.7451,3.7476,3.7469,3.7495,3.7543,3.7534,3.7565,3.7583,3.7588,3.7638,3.7646,3.7641,3.7661,3.7677,3.7661,3.7695,3.7693,3.7648,3.7639,3.7631,3.7626,3.773,0,0,0,0,0,3.7375,3.7384,3.7435,3.7424,3.7436,3.7482,3.7491,3.7521,3.7549,3.7559,3.759,3.7614,3.7627,3.7634,3.7648,3.7634,3.7644,3.7624,3.7616,3.7609,3.7606,3.7601,3.7593,3.7681,3.7681,3.7681,0,0,3.7339,3.7373,3.7375,3.741,3.7433,3.7441,3.7491,3.7496,3.7502,3.7559,3.7562,3.7586,3.7616,3.761,3.7608,3.7626,3.7584,3.7605,3.7599,3.76,3.7597,3.7588,3.7581,3.7679,3.7679,3.768,0,0,3.7279,3.7305,3.73,3.7323,3.7359,3.739,3.7389,3.7433,3.7452,3.7456,3.7499,3.7507,3.7527,3.7548,3.7561,3.7511,3.7543,3.7515,3.7473,3.7468,3.7461,3.7455,3.7437,3.7431,3.7511,3.7511,3.7511,0,3.723,3.7245,3.7292,3.7296,3.731,3.7365,3.736,3.7379,3.7417,3.7425,3.7445,3.7474,3.7498,3.7498,3.7486,3.7495,3.7495,3.751,3.7458,3.7453,3.7448,3.7432,3.7425,3.7507,3.7508,3.7508,3.7509,0,3.7183,3.7193,3.7184,3.7222,3.7235,3.7233,3.7281,3.7288,3.7318,3.7347,3.7351,3.7383,3.7405,3.7407,3.7435,3.7411,3.7422,3.7449,3.7485,3.7435,3.7421,3.7415,3.7502,3.7504,3.7505,3.7506,0,0,3.7075,3.7142,3.7138,3.7156,3.7201,3.7209,3.7211,3.7235,3.7241,3.7265,3.7268,3.7285,3.7312,3.7327,3.7358,3.7353,3.7313,3.7382,3.7384,3.7368,3.7289,3.7268,3.726,3.7335,3.7334,3.7333,3.7287,0,3.7023,3.7031,3.7076,3.7071,3.7081,3.7134,3.7136,3.7163,3.7191,3.7203,3.7233,3.7245,3.728,3.7289,3.7287,3.7318,3.7298,3.7322,3.7337,3.7337,3.7327,3.7252,3.7229,3.7184,3.7281,3.728,3.728,0,3.6962,3.6986,3.6982,3.7029,3.7035,3.7036,3.7063,3.7074,3.7106,3.7126,3.7144,3.718,3.7185,3.7219,3.7226,3.7241,3.725,3.7267,3.7266,3.7268,3.7305,3.7252,3.717,3.7163,3.7271,3.7272,3.7273,0,3.6885,3.6916,3.6918,3.6932,3.6987,3.6986,3.7009,3.7043,3.7055,3.7078,3.7086,3.7108,3.712,3.7136,3.7177,3.7198,3.7179,3.7216,3.7196,3.7195,3.7189,3.7189,3.7107,3.7195,3.7195,3.7195,3.7195,0,3.6821,3.6817,3.6885,3.6886,3.6883,3.6934,3.693,3.6957,3.6987,3.6994,3.7041,3.7047,3.7101,3.7112,3.7144,3.7145,3.715,3.7166,3.7174,3.7162,3.716,3.7167,3.7171,3.7193,3.7194,3.7194,3.7194,0,3.6733,3.6779,3.6785,3.6837,3.685,3.6846,3.689,3.6893,3.6925,3.6934,3.6939,3.6988,3.7004,3.7047,3.7073,3.7095,3.7087,3.7103,3.7077,3.7082,3.706,3.7061,3.6979,3.6971,3.7064,3.7063,3.7063,0,3.669,3.6688,3.6741,3.6751,3.6772,3.6786,3.68,3.685,3.6862,3.69,3.6898,3.6919,3.6938,3.6961,3.6998,3.7019,3.7035,3.7006,3.7039,3.7026,3.7035,3.7035,3.7035,3.6998,3.6997,3.6995,3.6995,0,3.6607,3.6631,3.665,3.6677,3.6693,3.6716,3.6741,3.6746,3.6802,3.6813,3.6832,3.6847,3.6876,3.6895,3.6922,3.6944,3.6978,3.6984,3.6981,3.6967,3.6952,3.696,3.7057,3.6986,3.6986,3.6987,3.6988,3.6988,3.6541,3.6543,3.6581,3.6601,3.6626,3.665,3.6656,3.669,3.6707,3.6736,3.6764,3.6779,3.6813,3.6853,3.6873,3.6885,3.6903,3.6898,3.6896,3.6894,3.6889,3.6951,3.689,3.6891,3.6891,3.6891,3.6891,0,3.6461,3.6489,3.6507,3.6543,3.6559,3.6593,3.6624,3.6634,3.6648,3.6677,3.6696,3.6717,3.6737,3.6777,3.68,3.6802,3.6819,3.6807,3.6807,3.6811,3.6871,3.6872,3.6793,3.6793,3.6793,3.6793,3.6793,3.6793,3.6422,3.6427,3.6455,3.6474,3.6502,3.6519,3.6534,3.6556,3.658,3.6602,3.662,3.6647,3.6681,3.6707,3.6727,3.6738,3.6744,3.6727,3.6743,3.6798,3.6807,3.6816,3.6817,3.6728,3.6727,3.6682,3.6682,3.6681]}]]